星链-36773(STARLINK-36773)

导读 | 豆包AI

STARLINK-36773是美国SpaceX公司星链卫星互联网星座中的一颗卫星,于2026年2月15日发射升空,部署在近地轨道。星链项目计划总计部署超4万颗卫星,旨在为全球尤其是基础设施匮乏地区提供高速、低延迟的宽带互联网接入服务,该卫星入网后将进一步扩展星链系统的全球覆盖能力与服务容量。

基本信息
目录编号:
67801
目录名称:
STARLINK-36773
国际标识:
2026-032E
轨道中心:
EARTH
卫星名称:
星链-36773
卫星全名:
星链-36773(STARLINK-36773)
卫星状态:
在轨 (已飞行99 天)
发射日期:
2026-02-15 UTC
国别 :
美国 (US)
星等 :
--
轨道信息
数据来源 国际轨道数据
星历时间: 2026-05-24T10:26:19+0800
1天前
查看轨道信息
半长轴: 6843.69km
偏心率: 0.0001632
轨道倾角: 97.286°
近地点辐角 88.939°
升交点赤经 332.147°
平近点角 271.204°
近地点: 464.436km
远地点: 466.67km
周期: 93.906分钟
每日圈数: 15.33442
详细信息
固有亮度:
5
最大亮度:
2.5
卫星平台:
Starlink V1.0
覆盖范围:
全球
运营商:
太空探索技术公司
运营商所在国:
美国
制造商(研发单位):
太空探索技术公司
制造商所在国:
美国
使用方式:
暂无
卫星简介
Starlink 计划是 SpaceX 推出的全球卫星互联网项目,通过发射低轨道卫星,为全球尤其是偏远地区提供高速、低延迟的互联网服务。自 2019 年起,Starlink 已部署数千颗卫星,旨在缩小全球数字鸿沟,推动互联网普及。该项目还为军事、航空等行业提供通信支持,带来广泛经济效益。
2D轨道图
3D轨道图
轨道高度分析图
轨道倾角分析图
轨道综合分析图
查看轨道综合分析图